Time,TemperatureF,DewpointF,PressureIn,WindDirection,WindDirectionDegrees,WindSpeedMPH,WindSpeedGustMPH,Humidity,HourlyPrecipIn,Conditions,Clouds,dailyrainin,SoftwareType,DateUTC
2013-04-16 00:00:00,58.5,48.4,30.10,SSE,158,7.7,12.1,69,0.00,FEW,,0.00,WeatherDisplay:10.37,2013-04-16 04:00:00,
2013-04-16 00:02:00,58.5,48.4,30.10,SSE,158,8.1,11.5,69,0.00,SCT,,0.00,WeatherDisplay:10.37,2013-04-16 04:02:00,
2013-04-16 00:04:00,58.5,48.4,30.10,SSE,166,9.0,13.0,69,0.00,SCT,SCT,0.00,WeatherDisplay:10.37,2013-04-16 04:04:00,
2013-04-16 00:06:00,58.5,48.4,30.10,ESE,112,5.9,12.7,69,0.00,SCT,,0.00,WeatherDisplay:10.37,2013-04-16 04:06:00,
2013-04-16 00:10:00,58.5,48.4,30.10,SSE,158,5.8,11.5,69,0.00,SCT,,0.00,WeatherDisplay:10.37,2013-04-16 04:10:00,
2013-04-16 00:15:00,58.3,48.6,30.10,SSE,158,6.5,11.5,70,0.00,SCT,,0.00,WeatherDisplay:10.37,2013-04-16 04:15:00,
2013-04-16 00:20:00,58.3,48.6,30.10,ESE,112,5.2,11.5,70,0.00,SCT,,0.00,WeatherDisplay:10.37,2013-04-16 04:20:00,
2013-04-16 00:25:00,58.3,48.6,30.10,South,180,9.4,11.2,70,0.00,SCT,,0.00,WeatherDisplay:10.37,2013-04-16 04:25:00,
2013-04-16 00:30:00,58.8,49.0,30.09,SSW,202,11.2,17.3,70,0.00,SCT,,0.00,WeatherDisplay:10.37,2013-04-16 04:30:00,
2013-04-16 00:35:00,58.5,48.7,30.09,SSE,158,8.5,10.4,70,0.00,SCT,,0.00,WeatherDisplay:10.37,2013-04-16 04:35:00,
2013-04-16 00:40:00,58.5,48.7,30.10,South,180,5.6,12.7,70,0.00,SCT,,0.00,WeatherDisplay:10.37,2013-04-16 04:40:00,
2013-04-16 00:45:00,58.5,48.7,30.10,SSE,158,7.5,15.0,70,0.00,SCT,,0.00,WeatherDisplay:10.37,2013-04-16 04:45:00,
2013-04-16 00:50:00,58.6,49.2,30.09,SW,225,9.2,19.6,71,0.00,SCT,,0.00,WeatherDisplay:10.37,2013-04-16 04:50:00,
2013-04-16 00:55:00,58.5,49.1,30.09,South,180,7.5,10.4,71,0.00,SCT,,0.00,WeatherDisplay:10.37,2013-04-16 04:55:00,
2013-04-16 01:00:00,58.5,49.1,30.09,SSE,158,9.7,13.8,71,0.00,SCT,,0.00,WeatherDisplay:10.37,2013-04-16 05:00:00,
2013-04-16 01:05:00,58.6,49.2,30.09,South,180,10.3,12.1,71,0.00,CLR,,0.00,WeatherDisplay:10.37,2013-04-16 05:05:00,
2013-04-16 01:10:00,58.6,49.2,30.09,SSW,202,8.6,11.5,71,0.00,CLR,,0.00,WeatherDisplay:10.37,2013-04-16 05:10:00,
2013-04-16 01:15:00,58.5,49.1,30.09,SSE,158,8.2,11.5,71,0.00,CLR,,0.00,WeatherDisplay:10.37,2013-04-16 05:15:00,
2013-04-16 01:20:00,58.5,49.1,30.09,SSE,158,8.6,13.8,71,0.00,CLR,,0.00,WeatherDisplay:10.37,2013-04-16 05:20:00,
2013-04-16 01:25:00,58.6,49.2,30.09,South,180,8.4,15.0,71,0.00,CLR,,0.00,WeatherDisplay:10.37,2013-04-16 05:25:00,
2013-04-16 01:30:00,58.5,49.1,30.09,SSE,158,8.2,11.5,71,0.00,CLR,,0.00,WeatherDisplay:10.37,2013-04-16 05:30:00,
2013-04-16 01:35:00,58.6,49.2,30.09,SSE,158,9.4,15.0,71,0.00,CLR,,0.00,WeatherDisplay:10.37,2013-04-16 05:35:00,
2013-04-16 01:40:00,58.5,49.1,30.08,ESE,112,8.6,12.1,71,0.00,CLR,,0.00,WeatherDisplay:10.37,2013-04-16 05:40:00,
2013-04-16 01:45:00,58.6,49.2,30.08,SSW,202,9.3,13.8,71,0.00,CLR,,0.00,WeatherDisplay:10.37,2013-04-16 05:45:00,
2013-04-16 01:50:00,58.3,49.3,30.08,SW,225,6.5,12.7,72,0.00,CLR,,0.00,WeatherDisplay:10.37,2013-04-16 05:50:00,
2013-04-16 01:55:00,58.3,49.3,30.08,SE,135,5.5,11.5,72,0.00,CLR,,0.00,WeatherDisplay:10.37,2013-04-16 05:55:00,
2013-04-16 02:00:00,57.9,49.3,30.08,SW,225,6.5,10.4,73,0.00,CLR,,0.00,WeatherDisplay:10.37,2013-04-16 06:00:00,
2013-04-16 02:05:00,58.1,49.5,30.08,South,180,4.9,6.9,73,0.00,CLR,,0.00,WeatherDisplay:10.37,2013-04-16 06:05:00,
2013-04-16 02:10:00,57.9,49.3,30.08,SSE,158,5.7,9.2,73,0.00,CLR,,0.00,WeatherDisplay:10.37,2013-04-16 06:10:00,
2013-04-16 02:15:00,57.9,49.3,30.08,SE,135,6.9,10.4,73,0.00,CLR,,0.00,WeatherDisplay:10.37,2013-04-16 06:15:00,
2013-04-16 02:20:00,58.1,49.5,30.08,SSE,158,8.6,12.1,73,0.00,CLR,,0.00,WeatherDisplay:10.37,2013-04-16 06:20:00,
2013-04-16 02:25:00,57.9,49.3,30.08,SW,225,7.2,9.5,73,0.00,CLR,,0.00,WeatherDisplay:10.37,2013-04-16 06:25:00,
2013-04-16 02:30:00,58.1,49.5,30.08,South,180,5.9,18.4,73,0.00,CLR,,0.00,WeatherDisplay:10.37,2013-04-16 06:30:00,
2013-04-16 02:35:00,57.9,49.3,30.08,SSE,158,6.5,10.4,73,0.00,CLR,,0.00,WeatherDisplay:10.37,2013-04-16 06:35:00,
2013-04-16 02:40:00,57.9,49.3,30.08,SW,225,5.7,10.4,73,0.00,CLR,,0.00,WeatherDisplay:10.37,2013-04-16 06:40:00,
2013-04-16 02:45:00,57.9,49.3,30.08,SSE,158,5.5,9.2,73,0.00,CLR,,0.00,WeatherDisplay:10.37,2013-04-16 06:45:00,
2013-04-16 02:50:00,57.7,49.1,30.08,SSE,158,6.1,8.1,73,0.00,CLR,,0.00,WeatherDisplay:10.37,2013-04-16 06:50:00,
2013-04-16 02:55:00,57.7,49.1,30.08,SSE,158,7.1,9.2,73,0.00,CLR,,0.00,WeatherDisplay:10.37,2013-04-16 06:55:00,
2013-04-16 03:00:00,57.4,49.2,30.08,SSE,158,8.7,10.4,74,0.00,CLR,,0.00,WeatherDisplay:10.37,2013-04-16 07:00:00,
2013-04-16 03:05:00,57.7,49.5,30.07,WSW,248,5.9,11.5,74,0.00,CLR,,0.00,WeatherDisplay:10.37,2013-04-16 07:05:00,
2013-04-16 03:10:00,57.6,49.0,30.07,SSE,158,4.6,8.1,73,0.00,CLR,,0.00,WeatherDisplay:10.37,2013-04-16 07:10:00,
2013-04-16 03:15:00,57.4,49.2,30.07,South,180,5.7,6.9,74,0.00,CLR,,0.00,WeatherDisplay:10.37,2013-04-16 07:15:00,
2013-04-16 03:20:00,57.7,49.5,30.07,ESE,112,9.5,14.6,74,0.00,CLR,,0.00,WeatherDisplay:10.37,2013-04-16 07:20:00,
2013-04-16 03:25:00,57.6,49.4,30.07,South,180,4.1,10.4,74,0.00,CLR,,0.00,WeatherDisplay:10.37,2013-04-16 07:25:00,
2013-04-16 03:30:00,57.7,49.5,30.07,SSE,158,5.4,18.4,74,0.00,CLR,,0.00,WeatherDisplay:10.37,2013-04-16 07:30:00,
2013-04-16 03:35:00,57.7,49.5,30.07,South,180,5.7,8.1,74,0.00,CLR,,0.00,WeatherDisplay:10.37,2013-04-16 07:35:00,
2013-04-16 03:40:00,57.7,49.5,30.07,SSE,158,7.1,15.0,74,0.00,CLR,,0.00,WeatherDisplay:10.37,2013-04-16 07:40:00,
2013-04-16 03:45:00,57.6,49.4,30.07,South,180,6.1,7.8,74,0.00,CLR,,0.00,WeatherDisplay:10.37,2013-04-16 07:45:00,
2013-04-16 03:50:00,57.7,49.5,30.07,South,180,5.4,8.1,74,0.00,CLR,,0.00,WeatherDisplay:10.37,2013-04-16 07:50:00,
2013-04-16 03:55:00,57.7,49.5,30.07,South,180,9.0,11.2,74,0.00,CLR,,0.00,WeatherDisplay:10.37,2013-04-16 07:55:00,
2013-04-16 04:00:00,57.9,49.3,30.07,South,180,6.2,8.1,73,0.00,CLR,,0.00,WeatherDisplay:10.37,2013-04-16 08:00:00,
2013-04-16 04:05:00,57.9,49.3,30.07,SSE,158,8.2,12.1,73,0.00,SCT,,0.00,WeatherDisplay:10.37,2013-04-16 08:05:00,
2013-04-16 04:10:00,57.7,49.1,30.07,South,180,5.0,7.0,73,0.00,SCT,,0.00,WeatherDisplay:10.37,2013-04-16 08:10:00,
2013-04-16 04:15:00,57.7,49.1,30.07,South,180,6.0,8.1,73,0.00,SCT,,0.00,WeatherDisplay:10.37,2013-04-16 08:15:00,
2013-04-16 04:20:00,57.6,49.4,30.07,South,180,5.6,10.4,74,0.00,SCT,,0.00,WeatherDisplay:10.37,2013-04-16 08:20:00,
2013-04-16 04:25:00,57.7,49.5,30.07,South,180,6.8,10.4,74,0.00,SCT,,0.00,WeatherDisplay:10.37,2013-04-16 08:25:00,
2013-04-16 04:30:00,57.7,49.5,30.07,ESE,112,5.8,7.8,74,0.00,SCT,,0.00,WeatherDisplay:10.37,2013-04-16 08:30:00,
2013-04-16 04:35:00,57.6,49.4,30.07,South,180,6.8,10.4,74,0.00,SCT,,0.00,WeatherDisplay:10.37,2013-04-16 08:35:00,
2013-04-16 04:40:00,57.6,49.4,30.07,South,180,3.6,5.8,74,0.00,SCT,,0.00,WeatherDisplay:10.37,2013-04-16 08:40:00,
2013-04-16 04:45:00,57.4,49.2,30.07,South,180,3.1,4.6,74,0.00,SCT,,0.00,WeatherDisplay:10.37,2013-04-16 08:45:00,
2013-04-16 04:50:00,57.6,49.4,30.07,SSE,158,7.1,9.5,74,0.00,SCT,,0.00,WeatherDisplay:10.37,2013-04-16 08:50:00,
2013-04-16 04:55:00,57.7,49.5,30.07,South,180,4.6,9.2,74,0.00,SCT,,0.00,WeatherDisplay:10.37,2013-04-16 08:55:00,
2013-04-16 05:00:00,57.4,49.2,30.07,South,180,3.6,6.9,74,0.00,SCT,,0.00,WeatherDisplay:10.37,2013-04-16 09:00:00,
2013-04-16 05:05:00,57.4,49.2,30.06,SE,135,4.7,6.9,74,0.00,FEW,,0.00,WeatherDisplay:10.37,2013-04-16 09:05:00,
2013-04-16 05:10:00,57.4,49.2,30.06,South,180,6.0,8.1,74,0.00,FEW,,0.00,WeatherDisplay:10.37,2013-04-16 09:10:00,
2013-04-16 05:15:00,57.7,49.5,30.07,SSW,202,5.7,8.1,74,0.00,FEW,,0.00,WeatherDisplay:10.37,2013-04-16 09:15:00,
2013-04-16 05:20:00,57.7,49.5,30.07,SSW,202,6.5,9.2,74,0.00,FEW,,0.00,WeatherDisplay:10.37,2013-04-16 09:20:00,
2013-04-16 05:25:00,57.6,49.4,30.07,ESE,112,3.9,6.1,74,0.00,FEW,,0.00,WeatherDisplay:10.37,2013-04-16 09:25:00,
2013-04-16 05:30:00,57.9,49.3,30.07,South,180,4.8,9.2,73,0.00,FEW,,0.00,WeatherDisplay:10.37,2013-04-16 09:30:00,
2013-04-16 05:35:00,57.9,49.3,30.07,SSE,158,5.5,7.8,73,0.00,FEW,,0.00,WeatherDisplay:10.37,2013-04-16 09:35:00,
2013-04-16 05:40:00,57.7,49.1,30.08,SSW,202,5.0,6.9,73,0.00,FEW,,0.00,WeatherDisplay:10.37,2013-04-16 09:40:00,
2013-04-16 05:45:00,58.1,49.5,30.08,SSW,202,4.0,8.1,73,0.00,FEW,,0.00,WeatherDisplay:10.37,2013-04-16 09:45:00,
2013-04-16 05:50:00,58.1,49.5,30.08,SSE,158,5.6,9.2,73,0.00,FEW,,0.00,WeatherDisplay:10.37,2013-04-16 09:50:00,
2013-04-16 05:55:00,57.9,49.3,30.08,South,180,5.4,8.1,73,0.00,FEW,,0.00,WeatherDisplay:10.37,2013-04-16 09:55:00,
2013-04-16 06:00:00,57.9,49.3,30.08,SSE,158,6.2,7.0,73,0.00,FEW,,0.00,WeatherDisplay:10.37,2013-04-16 10:00:00,
2013-04-16 06:05:00,57.9,49.3,30.08,South,180,5.5,9.2,73,0.00,FEW,,0.00,WeatherDisplay:10.37,2013-04-16 10:05:00,
2013-04-16 06:10:00,58.3,49.7,30.08,South,180,7.1,8.7,73,0.00,FEW,,0.00,WeatherDisplay:10.37,2013-04-16 10:10:00,
2013-04-16 06:15:00,58.5,49.9,30.09,SE,135,5.4,8.1,73,0.00,FEW,,0.00,WeatherDisplay:10.37,2013-04-16 10:15:00,
2013-04-16 06:20:00,58.6,50.0,30.09,South,180,7.0,10.4,73,0.00,FEW,,0.00,WeatherDisplay:10.37,2013-04-16 10:20:00,
2013-04-16 06:25:00,58.6,49.6,30.09,ENE,68,6.2,8.1,72,0.00,FEW,,0.00,WeatherDisplay:10.37,2013-04-16 10:25:00,
2013-04-16 06:30:00,58.8,49.8,30.09,SSE,158,6.6,9.2,72,0.00,FEW,,0.00,WeatherDisplay:10.37,2013-04-16 10:30:00,
2013-04-16 06:35:00,58.8,49.8,30.09,SSW,202,5.0,6.1,72,0.00,FEW,,0.00,WeatherDisplay:10.37,2013-04-16 10:35:00,
2013-04-16 06:40:00,58.8,49.8,30.10,SSE,158,4.0,5.8,72,0.00,FEW,,0.00,WeatherDisplay:10.37,2013-04-16 10:40:00,
2013-04-16 06:45:00,59.0,50.0,30.10,SSE,158,4.5,9.2,72,0.00,FEW,,0.00,WeatherDisplay:10.37,2013-04-16 10:45:00,
2013-04-16 06:50:00,59.0,50.0,30.10,WSW,248,3.9,5.8,72,0.00,FEW,,0.00,WeatherDisplay:10.37,2013-04-16 10:50:00,
2013-04-16 06:55:00,59.0,50.0,30.10,SSE,158,4.5,7.8,72,0.00,FEW,,0.00,WeatherDisplay:10.37,2013-04-16 10:55:00,
2013-04-16 07:00:00,59.4,50.0,30.10,South,180,2.6,10.4,71,0.00,FEW,,0.00,WeatherDisplay:10.37,2013-04-16 11:00:00,
2013-04-16 07:05:00,59.5,50.1,30.10,South,180,3.7,8.1,71,0.00,BKN,,0.00,WeatherDisplay:10.37,2013-04-16 11:05:00,
2013-04-16 07:10:00,59.7,49.9,30.10,SSE,158,5.5,8.7,70,0.00,BKN,,0.00,WeatherDisplay:10.37,2013-04-16 11:10:00,
2013-04-16 07:15:00,59.9,50.1,30.10,South,180,6.7,7.8,70,0.00,BKN,,0.00,WeatherDisplay:10.37,2013-04-16 11:15:00,
2013-04-16 07:20:00,59.9,50.1,30.10,SSE,158,5.7,7.0,70,0.00,BKN,,0.00,WeatherDisplay:10.37,2013-04-16 11:20:00,
2013-04-16 07:25:00,60.3,50.5,30.10,SSE,158,7.7,10.4,70,0.00,BKN,,0.00,WeatherDisplay:10.37,2013-04-16 11:25:00,
2013-04-16 07:30:00,60.4,50.2,30.10,SSW,202,6.2,8.7,69,0.00,BKN,,0.00,WeatherDisplay:10.37,2013-04-16 11:30:00,
2013-04-16 07:35:00,60.6,50.4,30.10,SSW,202,6.4,9.2,69,0.00,BKN,,0.00,WeatherDisplay:10.37,2013-04-16 11:35:00,
2013-04-16 07:40:00,60.6,50.4,30.11,SSE,158,4.1,6.9,69,0.00,BKN,,0.00,WeatherDisplay:10.37,2013-04-16 11:40:00,
2013-04-16 07:45:00,60.6,50.4,30.11,South,180,4.1,4.6,69,0.00,BKN,,0.00,WeatherDisplay:10.37,2013-04-16 11:45:00,
2013-04-16 07:50:00,61.0,50.8,30.11,SSE,158,3.2,6.9,69,0.00,BKN,,0.00,WeatherDisplay:10.37,2013-04-16 11:50:00,
2013-04-16 07:55:00,61.2,50.6,30.11,South,180,2.7,3.6,68,0.00,BKN,,0.00,WeatherDisplay:10.37,2013-04-16 11:55:00,
2013-04-16 08:00:00,62.1,51.0,30.11,SSE,158,5.1,7.0,67,0.00,BKN,,0.00,WeatherDisplay:10.37,2013-04-16 12:00:00,
2013-04-16 08:05:00,62.8,51.3,30.12,SSE,158,6.5,13.8,66,0.00,OVC,,0.00,WeatherDisplay:10.37,2013-04-16 12:05:00,
2013-04-16 08:10:00,63.0,51.0,30.12,South,180,7.4,10.4,65,0.00,OVC,,0.00,WeatherDisplay:10.37,2013-04-16 12:10:00,
2013-04-16 08:15:00,62.8,50.9,30.12,SSE,158,7.6,9.2,65,0.00,OVC,,0.00,WeatherDisplay:10.37,2013-04-16 12:15:00,
2013-04-16 08:20:00,62.8,50.9,30.12,South,180,6.6,9.2,65,0.00,OVC,,0.00,WeatherDisplay:10.37,2013-04-16 12:20:00,
2013-04-16 08:25:00,62.8,50.9,30.12,SSE,158,10.6,14.6,65,0.00,OVC,,0.00,WeatherDisplay:10.37,2013-04-16 12:25:00,
2013-04-16 08:30:00,62.8,50.9,30.12,South,180,7.4,9.2,65,0.00,OVC,,0.00,WeatherDisplay:10.37,2013-04-16 12:30:00,
2013-04-16 08:35:00,62.6,50.7,30.12,SSE,158,5.3,8.1,65,0.00,OVC,,0.00,WeatherDisplay:10.37,2013-04-16 12:35:00,
2013-04-16 08:40:00,62.6,50.7,30.12,South,180,7.5,11.5,65,0.00,OVC,,0.00,WeatherDisplay:10.37,2013-04-16 12:40:00,
2013-04-16 08:45:00,62.6,51.1,30.12,South,180,8.6,9.5,66,0.00,SCT,,0.00,WeatherDisplay:10.37,2013-04-16 12:45:00,
2013-04-16 08:50:00,63.0,51.5,30.12,WSW,248,5.8,8.7,66,0.00,SCT,,0.00,WeatherDisplay:10.37,2013-04-16 12:50:00,
2013-04-16 08:55:00,63.3,51.3,30.12,South,180,5.3,9.2,65,0.00,SCT,,0.00,WeatherDisplay:10.37,2013-04-16 12:55:00,
2013-04-16 09:00:00,63.5,51.5,30.12,South,180,4.9,9.2,65,0.00,SCT,,0.00,WeatherDisplay:10.37,2013-04-16 13:00:00,
2013-04-16 09:05:00,63.9,51.5,30.12,South,180,5.1,9.2,64,0.00,BKN,,0.00,WeatherDisplay:10.37,2013-04-16 13:05:00,
2013-04-16 09:10:00,63.9,51.5,30.12,South,186,8.0,12.0,64,0.00,BKN,BKN,0.00,WeatherDisplay:10.37,2013-04-16 13:10:00,
2013-04-16 09:15:00,64.0,51.6,30.13,WSW,248,7.1,9.5,64,0.00,BKN,,0.00,WeatherDisplay:10.37,2013-04-16 13:15:00,
2013-04-16 09:20:00,64.2,51.8,30.13,SW,225,5.4,6.9,64,0.00,BKN,,0.00,WeatherDisplay:10.37,2013-04-16 13:20:00,
2013-04-16 09:25:00,64.4,52.0,30.13,South,180,4.3,8.1,64,0.00,BKN,,0.00,WeatherDisplay:10.37,2013-04-16 13:25:00,
2013-04-16 09:30:00,65.1,52.2,30.13,SSW,202,6.4,7.0,63,0.00,BKN,,0.00,WeatherDisplay:10.37,2013-04-16 13:30:00,
2013-04-16 09:35:00,65.8,52.4,30.13,South,180,5.2,8.1,62,0.00,BKN,,0.00,WeatherDisplay:10.37,2013-04-16 13:35:00,
2013-04-16 09:40:00,66.0,52.6,30.13,WSW,248,5.4,8.1,62,0.00,BKN,,0.00,WeatherDisplay:10.37,2013-04-16 13:40:00,
2013-04-16 09:46:00,66.0,52.2,30.13,SW,225,4.9,6.1,61,0.00,BKN,,0.00,WeatherDisplay:10.37,2013-04-16 13:46:00,
2013-04-16 09:51:00,66.2,52.8,30.13,South,180,5.1,6.1,62,0.00,BKN,,0.00,WeatherDisplay:10.37,2013-04-16 13:51:00,
2013-04-16 09:56:00,66.4,52.5,30.13,SSW,202,5.4,8.1,61,0.00,BKN,,0.00,WeatherDisplay:10.37,2013-04-16 13:56:00,
2013-04-16 10:01:00,66.7,52.8,30.13,South,180,8.9,11.5,61,0.00,OVC,,0.00,WeatherDisplay:10.37,2013-04-16 14:01:00,
2013-04-16 10:06:00,67.3,52.9,30.13,SSW,202,8.1,11.5,60,0.00,OVC,,0.00,WeatherDisplay:10.37,2013-04-16 14:06:00,
2013-04-16 10:11:00,68.4,53.0,30.13,SSW,202,10.9,12.9,58,0.00,OVC,,0.00,WeatherDisplay:10.37,2013-04-16 14:11:00,
2013-04-16 10:16:00,68.7,53.3,30.13,South,180,13.0,15.4,58,0.00,OVC,,0.00,WeatherDisplay:10.37,2013-04-16 14:16:00,
2013-04-16 10:21:00,68.9,53.0,30.13,SSW,202,9.8,15.0,57,0.00,OVC,,0.00,WeatherDisplay:10.37,2013-04-16 14:21:00,
2013-04-16 10:26:00,69.1,53.7,30.13,South,180,6.6,9.2,58,0.00,OVC,,0.00,WeatherDisplay:10.37,2013-04-16 14:26:00,
2013-04-16 10:31:00,69.8,53.9,30.13,SSE,158,13.1,17.3,57,0.00,OVC,,0.00,WeatherDisplay:10.37,2013-04-16 14:31:00,
2013-04-16 10:36:00,70.7,53.7,30.13,SSW,202,14.2,19.7,55,0.00,OVC,,0.00,WeatherDisplay:10.37,2013-04-16 14:36:00,
2013-04-16 10:41:00,71.2,54.2,30.13,South,180,11.3,17.3,55,0.00,OVC,,0.00,WeatherDisplay:10.37,2013-04-16 14:41:00,
2013-04-16 10:46:00,71.4,54.4,30.13,West,270,11.9,14.6,55,0.00,OVC,,0.00,WeatherDisplay:10.37,2013-04-16 14:46:00,
2013-04-16 10:51:00,71.6,54.1,30.14,SW,225,17.8,20.7,54,0.00,OVC,,0.00,WeatherDisplay:10.37,2013-04-16 14:51:00,
2013-04-16 10:56:00,72.5,54.4,30.14,SW,225,12.4,15.4,53,0.00,OVC,,0.00,WeatherDisplay:10.37,2013-04-16 14:56:00,
2013-04-16 11:01:00,72.7,54.6,30.14,South,180,13.1,20.7,53,0.00,BKN,,0.00,WeatherDisplay:10.37,2013-04-16 15:01:00,
2013-04-16 11:06:00,71.6,54.6,30.14,SSW,202,9.7,15.0,55,0.00,BKN,,0.00,WeatherDisplay:10.37,2013-04-16 15:06:00,
2013-04-16 11:11:00,71.2,54.7,30.14,South,180,8.8,11.5,56,0.00,BKN,,0.00,WeatherDisplay:10.37,2013-04-16 15:11:00,
2013-04-16 11:16:00,71.1,54.1,30.14,SSW,202,8.5,12.7,55,0.00,BKN,,0.00,WeatherDisplay:10.37,2013-04-16 15:16:00,
2013-04-16 11:21:00,71.2,54.2,30.14,South,180,10.6,26.5,55,0.00,BKN,,0.00,WeatherDisplay:10.37,2013-04-16 15:21:00,
2013-04-16 11:26:00,72.0,54.4,30.14,SSE,158,8.4,16.1,54,0.00,BKN,,0.00,WeatherDisplay:10.37,2013-04-16 15:26:00,
2013-04-16 11:31:00,72.0,54.4,30.14,SSE,158,9.5,9.5,54,0.00,BKN,,0.00,WeatherDisplay:10.37,2013-04-16 15:31:00,
2013-04-16 11:36:00,72.7,55.1,30.14,South,180,11.0,13.8,54,0.00,BKN,,0.00,WeatherDisplay:10.37,2013-04-16 15:36:00,
2013-04-16 11:41:00,73.4,55.2,30.14,SW,225,7.8,11.5,53,0.00,BKN,,0.00,WeatherDisplay:10.37,2013-04-16 15:41:00,
2013-04-16 11:46:00,72.9,54.8,30.14,South,180,10.5,16.3,53,0.00,BKN,,0.00,WeatherDisplay:10.37,2013-04-16 15:46:00,
2013-04-16 11:51:00,73.2,56.1,30.14,SSW,202,5.3,13.8,55,0.00,BKN,,0.00,WeatherDisplay:10.37,2013-04-16 15:51:00,
2013-04-16 11:56:00,72.7,55.1,30.14,SSW,202,10.2,12.1,54,0.00,BKN,,0.00,WeatherDisplay:10.37,2013-04-16 15:56:00,
2013-04-16 12:01:00,72.7,55.1,30.14,South,180,10.0,13.8,54,0.00,BKN,,0.00,WeatherDisplay:10.37,2013-04-16 16:01:00,
2013-04-16 12:06:00,73.4,55.2,30.14,SSW,202,5.8,11.5,53,0.00,BKN,,0.00,WeatherDisplay:10.37,2013-04-16 16:06:00,
2013-04-16 12:11:00,74.3,56.1,30.14,SSE,158,9.0,11.5,53,0.00,BKN,,0.00,WeatherDisplay:10.37,2013-04-16 16:11:00,
2013-04-16 12:16:00,75.2,55.8,30.13,SSW,202,7.5,11.5,51,0.00,BKN,,0.00,WeatherDisplay:10.37,2013-04-16 16:16:00,
2013-04-16 12:21:00,74.3,55.5,30.13,West,270,10.3,18.4,52,0.00,BKN,,0.00,WeatherDisplay:10.37,2013-04-16 16:21:00,
2013-04-16 12:26:00,74.5,56.2,30.14,SW,225,7.7,12.9,53,0.00,BKN,,0.00,WeatherDisplay:10.37,2013-04-16 16:26:00,
2013-04-16 12:31:00,74.5,56.2,30.14,SW,225,5.3,5.8,53,0.00,BKN,,0.00,WeatherDisplay:10.37,2013-04-16 16:31:00,
2013-04-16 12:36:00,74.1,55.3,30.14,ESE,112,11.0,15.0,52,0.00,BKN,,0.00,WeatherDisplay:10.37,2013-04-16 16:36:00,
2013-04-16 12:41:00,74.8,57.0,30.13,WSW,248,10.0,15.0,54,0.00,BKN,,0.00,WeatherDisplay:10.37,2013-04-16 16:41:00,
2013-04-16 12:46:00,75.4,56.5,30.13,NW,315,11.2,17.3,52,0.00,BKN,,0.00,WeatherDisplay:10.37,2013-04-16 16:46:00,
2013-04-16 12:51:00,74.8,56.0,30.13,SSW,202,10.4,15.4,52,0.00,BKN,,0.00,WeatherDisplay:10.37,2013-04-16 16:51:00,
2013-04-16 12:56:00,75.0,56.2,30.13,SSW,202,6.8,11.5,52,0.00,BKN,,0.00,WeatherDisplay:10.37,2013-04-16 16:56:00,
2013-04-16 13:01:00,74.3,55.5,30.13,West,270,9.9,13.8,52,0.00,BKN,,0.00,WeatherDisplay:10.37,2013-04-16 17:01:00,
2013-04-16 13:07:00,75.6,56.2,30.12,SSW,202,6.6,9.2,51,0.00,BKN,,0.00,WeatherDisplay:10.37,2013-04-16 17:07:00,
2013-04-16 13:12:00,74.8,56.0,30.12,WNW,292,12.1,15.0,52,0.00,BKN,,0.00,WeatherDisplay:10.37,2013-04-16 17:12:00,
2013-04-16 13:17:00,74.3,56.1,30.12,SSW,202,8.7,9.5,53,0.00,BKN,,0.00,WeatherDisplay:10.37,2013-04-16 17:17:00,
2013-04-16 13:22:00,75.4,56.5,30.12,West,270,12.0,15.4,52,0.00,BKN,,0.00,WeatherDisplay:10.37,2013-04-16 17:22:00,
2013-04-16 13:27:00,76.5,57.0,30.11,South,180,8.9,11.5,51,0.00,BKN,,0.00,WeatherDisplay:10.37,2013-04-16 17:27:00,
2013-04-16 13:32:00,77.5,57.4,30.11,West,270,7.7,13.8,50,0.00,BKN,,0.00,WeatherDisplay:10.37,2013-04-16 17:32:00,
2013-04-16 13:37:00,77.4,57.3,30.11,SW,225,7.4,10.4,50,0.00,BKN,,0.00,WeatherDisplay:10.37,2013-04-16 17:37:00,
2013-04-16 13:42:00,76.8,56.2,30.11,South,180,10.7,15.0,49,0.00,BKN,,0.00,WeatherDisplay:10.37,2013-04-16 17:42:00,
2013-04-16 13:48:00,77.5,56.8,30.11,South,180,17.9,19.7,49,0.00,BKN,,0.00,WeatherDisplay:10.37,2013-04-16 17:48:00,
2013-04-16 13:53:00,78.3,57.0,30.10,West,270,12.4,15.4,48,0.00,BKN,,0.00,WeatherDisplay:10.37,2013-04-16 17:53:00,
2013-04-16 13:58:00,77.7,57.0,30.10,West,270,7.6,19.6,49,0.00,BKN,,0.00,WeatherDisplay:10.37,2013-04-16 17:58:00,
2013-04-16 14:03:00,79.5,57.5,30.10,WNW,292,10.6,19.7,47,0.00,BKN,,0.00,WeatherDisplay:10.37,2013-04-16 18:03:00,
2013-04-16 14:08:00,77.7,56.4,30.10,West,270,9.0,11.5,48,0.00,BKN,,0.00,WeatherDisplay:10.37,2013-04-16 18:08:00,
2013-04-16 14:13:00,77.7,57.0,30.09,WSW,248,11.7,15.4,49,0.00,BKN,,0.00,WeatherDisplay:10.37,2013-04-16 18:13:00,
2013-04-16 14:18:00,76.6,56.6,30.09,West,270,6.7,11.5,50,0.00,BKN,,0.00,WeatherDisplay:10.37,2013-04-16 18:18:00,
2013-04-16 14:23:00,78.1,56.8,30.09,SW,225,12.4,15.4,48,0.00,BKN,,0.00,WeatherDisplay:10.37,2013-04-16 18:23:00,
2013-04-16 14:28:00,78.6,57.3,30.09,SSW,202,8.8,10.4,48,0.00,BKN,,0.00,WeatherDisplay:10.37,2013-04-16 18:28:00,
2013-04-16 14:33:00,78.8,57.4,30.09,ESE,112,4.9,8.7,48,0.00,BKN,,0.00,WeatherDisplay:10.37,2013-04-16 18:33:00,
2013-04-16 14:38:00,77.9,57.2,30.09,SSE,158,6.9,10.4,49,0.00,BKN,,0.00,WeatherDisplay:10.37,2013-04-16 18:38:00,
2013-04-16 14:43:00,77.5,57.9,30.09,West,270,9.1,15.0,51,0.00,BKN,,0.00,WeatherDisplay:10.37,2013-04-16 18:43:00,
2013-04-16 14:48:00,77.0,57.5,30.09,West,270,10.0,15.4,51,0.00,BKN,,0.00,WeatherDisplay:10.37,2013-04-16 18:48:00,
2013-04-16 14:53:00,76.1,56.7,30.09,West,270,6.9,13.8,51,0.00,BKN,,0.00,WeatherDisplay:10.37,2013-04-16 18:53:00,
2013-04-16 14:58:00,76.6,57.1,30.09,South,180,5.0,9.2,51,0.00,BKN,,0.00,WeatherDisplay:10.37,2013-04-16 18:58:00,
2013-04-16 15:03:00,76.5,57.6,30.08,West,270,8.2,11.5,52,0.00,BKN,,0.00,WeatherDisplay:10.37,2013-04-16 19:03:00,
2013-04-16 15:08:00,77.2,58.2,30.08,SSW,202,7.3,13.8,52,0.00,BKN,,0.00,WeatherDisplay:10.37,2013-04-16 19:08:00,
2013-04-16 15:13:00,77.7,58.1,30.08,NW,315,6.1,9.2,51,0.00,BKN,,0.00,WeatherDisplay:10.37,2013-04-16 19:13:00,
2013-04-16 15:18:00,78.1,57.4,30.06,SW,225,9.4,11.5,49,0.00,BKN,,0.00,WeatherDisplay:10.37,2013-04-16 19:18:00,
2013-04-16 15:23:00,78.4,57.7,30.06,WSW,248,5.8,8.1,49,0.00,BKN,,0.00,WeatherDisplay:10.37,2013-04-16 19:23:00,
2013-04-16 15:28:00,79.2,58.4,30.05,South,180,6.4,9.2,49,0.00,BKN,,0.00,WeatherDisplay:10.37,2013-04-16 19:28:00,
2013-04-16 15:33:00,79.2,57.8,30.05,South,180,10.7,15.0,48,0.00,BKN,,0.00,WeatherDisplay:10.37,2013-04-16 19:33:00,
2013-04-16 15:38:00,78.8,57.4,30.05,SW,225,10.8,11.5,48,0.00,BKN,,0.00,WeatherDisplay:10.37,2013-04-16 19:38:00,
2013-04-16 15:43:00,78.6,57.3,30.04,SSE,158,8.6,11.5,48,0.00,BKN,,0.00,WeatherDisplay:10.37,2013-04-16 19:43:00,
2013-04-16 15:48:00,78.4,57.7,30.04,South,180,7.1,11.5,49,0.00,BKN,,0.00,WeatherDisplay:10.37,2013-04-16 19:48:00,
2013-04-16 15:53:00,78.6,57.8,30.03,West,270,6.7,11.5,49,0.00,BKN,,0.00,WeatherDisplay:10.37,2013-04-16 19:53:00,
2013-04-16 15:58:00,79.0,57.6,30.03,SSW,202,10.9,12.7,48,0.00,BKN,,0.00,WeatherDisplay:10.37,2013-04-16 19:58:00,
2013-04-16 16:03:00,79.7,57.7,30.03,South,180,8.7,16.3,47,0.00,BKN,,0.00,WeatherDisplay:10.37,2013-04-16 20:03:00,
2013-04-16 16:08:00,79.0,57.0,30.03,SW,225,6.7,11.5,47,0.00,BKN,,0.00,WeatherDisplay:10.37,2013-04-16 20:08:00,
2013-04-16 16:13:00,79.0,57.6,30.03,West,270,6.3,11.5,48,0.00,BKN,,0.00,WeatherDisplay:10.37,2013-04-16 20:13:00,
2013-04-16 16:18:00,79.7,57.1,30.03,SSW,202,11.1,18.4,46,0.00,BKN,,0.00,WeatherDisplay:10.37,2013-04-16 20:18:00,
2013-04-16 16:23:00,79.7,57.7,30.03,South,180,7.8,10.4,47,0.00,BKN,,0.00,WeatherDisplay:10.37,2013-04-16 20:23:00,
2013-04-16 16:28:00,79.9,57.9,30.03,SSW,202,10.9,12.9,47,0.00,BKN,,0.00,WeatherDisplay:10.37,2013-04-16 20:28:00,
2013-04-16 16:33:00,79.9,57.3,30.03,SSE,158,7.2,13.8,46,0.00,BKN,,0.00,WeatherDisplay:10.37,2013-04-16 20:33:00,
2013-04-16 16:38:00,79.9,57.9,30.03,SE,135,5.3,13.8,47,0.00,BKN,,0.00,WeatherDisplay:10.37,2013-04-16 20:38:00,
2013-04-16 16:43:00,81.0,58.3,30.03,West,270,8.7,11.5,46,0.00,BKN,,0.00,WeatherDisplay:10.37,2013-04-16 20:43:00,
2013-04-16 16:48:00,79.7,58.3,30.03,SSW,202,2.7,8.1,48,0.00,BKN,,0.00,WeatherDisplay:10.37,2013-04-16 20:48:00,
2013-04-16 16:53:00,79.7,57.1,30.03,SSW,202,5.8,11.5,46,0.00,BKN,,0.00,WeatherDisplay:10.37,2013-04-16 20:53:00,
2013-04-16 16:58:00,79.9,57.3,30.03,North,360,5.6,10.4,46,0.00,BKN,,0.00,WeatherDisplay:10.37,2013-04-16 20:58:00,
2013-04-16 17:03:00,80.2,56.9,30.03,WSW,248,9.8,12.9,45,0.00,BKN,,0.00,WeatherDisplay:10.37,2013-04-16 21:03:00,
2013-04-16 17:08:00,80.2,56.9,30.03,SSW,202,7.2,13.8,45,0.00,BKN,,0.00,WeatherDisplay:10.37,2013-04-16 21:08:00,
2013-04-16 17:13:00,80.2,57.5,30.03,NW,315,15.4,18.4,46,0.00,BKN,,0.00,WeatherDisplay:10.37,2013-04-16 21:13:00,
2013-04-16 17:18:00,79.5,57.5,30.03,WNW,292,7.9,10.4,47,0.00,BKN,,0.00,WeatherDisplay:10.37,2013-04-16 21:18:00,
2013-04-16 17:23:00,79.3,57.3,30.03,SSW,202,4.7,8.1,47,0.00,BKN,,0.00,WeatherDisplay:10.37,2013-04-16 21:23:00,
2013-04-16 17:28:00,79.3,57.3,30.03,WSW,248,8.0,9.2,47,0.00,BKN,,0.00,WeatherDisplay:10.37,2013-04-16 21:28:00,
2013-04-16 17:33:00,79.7,57.1,30.03,SSW,202,7.0,9.2,46,0.00,BKN,,0.00,WeatherDisplay:10.37,2013-04-16 21:33:00,
2013-04-16 17:38:00,80.6,57.3,30.03,WSW,248,7.2,11.2,45,0.00,BKN,,0.00,WeatherDisplay:10.37,2013-04-16 21:38:00,
2013-04-16 17:43:00,81.1,57.7,30.03,SSW,202,7.4,11.5,45,0.00,BKN,,0.00,WeatherDisplay:10.37,2013-04-16 21:43:00,
2013-04-16 17:48:00,80.8,57.5,30.03,SW,225,8.6,12.9,45,0.00,BKN,,0.00,WeatherDisplay:10.37,2013-04-16 21:48:00,
2013-04-16 17:53:00,81.0,57.7,30.03,WNW,292,6.4,9.5,45,0.00,BKN,,0.00,WeatherDisplay:10.37,2013-04-16 21:53:00,
2013-04-16 17:58:00,81.9,57.8,30.03,West,270,5.1,9.2,44,0.00,BKN,,0.00,WeatherDisplay:10.37,2013-04-16 21:58:00,
2013-04-16 18:03:00,82.0,57.9,30.04,West,270,8.4,9.5,44,0.00,BKN,,0.00,WeatherDisplay:10.37,2013-04-16 22:03:00,
2013-04-16 18:08:00,81.5,57.5,30.04,SW,225,5.3,6.9,44,0.00,BKN,,0.00,WeatherDisplay:10.37,2013-04-16 22:08:00,
2013-04-16 18:13:00,81.0,57.0,30.04,West,270,5.6,6.1,44,0.00,BKN,,0.00,WeatherDisplay:10.37,2013-04-16 22:13:00,
2013-04-16 18:18:00,80.4,57.7,30.03,West,270,5.6,9.2,46,0.00,BKN,,0.00,WeatherDisplay:10.37,2013-04-16 22:18:00,
2013-04-16 18:23:00,80.1,56.2,30.03,SW,225,7.7,10.4,44,0.00,BKN,,0.00,WeatherDisplay:10.37,2013-04-16 22:23:00,
2013-04-16 18:28:00,80.1,57.5,30.03,NNW,338,3.8,11.5,46,0.00,BKN,,0.00,WeatherDisplay:10.37,2013-04-16 22:28:00,
2013-04-16 18:33:00,79.7,56.5,30.03,West,270,7.4,11.5,45,0.00,BKN,,0.00,WeatherDisplay:10.37,2013-04-16 22:33:00,
2013-04-16 18:38:00,79.5,56.9,30.03,West,270,6.2,8.1,46,0.00,BKN,,0.00,WeatherDisplay:10.37,2013-04-16 22:38:00,
2013-04-16 18:43:00,79.5,56.9,30.03,North,360,3.4,4.6,46,0.00,BKN,,0.00,WeatherDisplay:10.37,2013-04-16 22:43:00,
2013-04-16 18:48:00,79.2,56.6,30.03,NNW,338,3.9,6.1,46,0.00,BKN,,0.00,WeatherDisplay:10.37,2013-04-16 22:48:00,
2013-04-16 18:53:00,78.6,56.7,30.03,West,270,4.2,5.8,47,0.00,BKN,,0.00,WeatherDisplay:10.37,2013-04-16 22:53:00,
2013-04-16 18:58:00,78.4,57.1,30.03,WSW,248,5.4,8.1,48,0.00,BKN,,0.00,WeatherDisplay:10.37,2013-04-16 22:58:00,
2013-04-16 19:03:00,78.4,57.1,30.03,WSW,248,0.0,2.3,48,0.00,SCT,,0.00,WeatherDisplay:10.37,2013-04-16 23:03:00,
2013-04-16 19:08:00,77.5,56.8,30.03,West,270,3.3,4.6,49,0.00,SCT,,0.00,WeatherDisplay:10.37,2013-04-16 23:08:00,
2013-04-16 19:13:00,77.4,56.7,30.03,WNW,292,4.1,6.1,49,0.00,SCT,,0.00,WeatherDisplay:10.37,2013-04-16 23:13:00,
2013-04-16 19:18:00,76.8,57.3,30.04,WNW,292,0.0,2.3,51,0.00,SCT,,0.00,WeatherDisplay:10.37,2013-04-16 23:18:00,
2013-04-16 19:23:00,76.6,57.1,30.04,WNW,292,0.0,0.0,51,0.00,SCT,,0.00,WeatherDisplay:10.37,2013-04-16 23:23:00,
2013-04-16 19:28:00,75.9,57.5,30.03,WNW,292,0.0,0.0,53,0.00,SCT,,0.00,WeatherDisplay:10.37,2013-04-16 23:28:00,
2013-04-16 19:33:00,75.0,57.2,30.03,WNW,292,0.0,0.0,54,0.00,SCT,,0.00,WeatherDisplay:10.37,2013-04-16 23:33:00,
2013-04-16 19:38:00,74.7,58.0,30.03,WNW,292,0.0,0.0,56,0.00,SCT,,0.00,WeatherDisplay:10.37,2013-04-16 23:38:00,
2013-04-16 19:43:00,73.8,58.6,30.03,WNW,292,0.0,0.0,59,0.00,SCT,,0.00,WeatherDisplay:10.37,2013-04-16 23:43:00,
2013-04-16 19:48:00,72.9,58.7,30.03,WNW,292,0.0,0.0,61,0.00,SCT,,0.00,WeatherDisplay:10.37,2013-04-16 23:48:00,
2013-04-16 19:53:00,72.0,58.3,30.03,WNW,292,0.0,0.0,62,0.00,SCT,,0.00,WeatherDisplay:10.37,2013-04-16 23:53:00,
2013-04-16 19:58:00,71.4,58.1,30.03,WNW,292,0.0,0.0,63,0.00,SCT,,0.00,WeatherDisplay:10.37,2013-04-16 23:58:00,
2013-04-16 20:03:00,70.9,58.1,30.04,WNW,292,0.0,0.0,64,0.00,SCT,,0.00,WeatherDisplay:10.37,2013-04-17 00:03:00,
2013-04-16 20:08:00,70.5,58.2,30.04,WNW,292,0.0,0.0,65,0.00,SCT,,0.00,WeatherDisplay:10.37,2013-04-17 00:08:00,
2013-04-16 20:13:00,70.3,58.0,30.04,WNW,292,0.0,0.0,65,0.00,SCT,,0.00,WeatherDisplay:10.37,2013-04-17 00:13:00,
2013-04-16 20:18:00,69.8,57.5,30.04,WNW,292,0.0,0.0,65,0.00,SCT,,0.00,WeatherDisplay:10.37,2013-04-17 00:18:00,
2013-04-16 20:23:00,69.3,57.5,30.04,WNW,292,0.0,0.0,66,0.00,SCT,,0.00,WeatherDisplay:10.37,2013-04-17 00:23:00,
2013-04-16 20:28:00,69.3,58.7,30.05,WNW,292,0.0,0.0,69,0.00,SCT,,0.00,WeatherDisplay:10.37,2013-04-17 00:28:00,
2013-04-16 20:33:00,68.9,59.1,30.05,WNW,292,0.0,0.0,71,0.00,SCT,,0.00,WeatherDisplay:10.37,2013-04-17 00:33:00,
2013-04-16 20:38:00,68.5,60.3,30.07,WNW,292,3.1,4.6,75,0.00,SCT,,0.00,WeatherDisplay:10.37,2013-04-17 00:38:00,
2013-04-16 20:43:00,66.9,59.1,30.07,WNW,292,17.0,26.5,76,0.00,SCT,,0.00,WeatherDisplay:10.37,2013-04-17 00:43:00,
2013-04-16 20:48:00,64.2,58.6,30.07,WSW,248,18.6,21.9,82,0.01,RA,,0.01,WeatherDisplay:10.37,2013-04-17 00:48:00,
2013-04-16 20:53:00,62.8,58.5,30.11,NW,315,19.7,24.2,86,0.01,RA,,0.02,WeatherDisplay:10.37,2013-04-17 00:53:00,
2013-04-16 20:58:00,61.2,58.9,30.11,West,270,17.0,31.1,92,0.14,RA,,0.14,WeatherDisplay:10.37,2013-04-17 00:58:00,
2013-04-16 21:03:00,60.6,58.9,30.12,North,360,11.5,18.4,94,0.36,RA,,0.36,WeatherDisplay:10.37,2013-04-17 01:03:00,
2013-04-16 21:08:00,60.4,58.7,30.12,North,360,9.8,12.1,94,0.37,RA,,0.37,WeatherDisplay:10.37,2013-04-17 01:08:00,
2013-04-16 21:13:00,60.4,58.7,30.12,NW,315,7.5,10.4,94,0.39,RA,,0.39,WeatherDisplay:10.37,2013-04-17 01:13:00,
2013-04-16 21:18:00,60.4,58.7,30.12,North,360,5.3,9.2,94,0.40,RA,,0.40,WeatherDisplay:10.37,2013-04-17 01:18:00,
2013-04-16 21:23:00,60.4,58.7,30.12,NNW,338,6.7,11.5,94,0.41,RA,,0.41,WeatherDisplay:10.37,2013-04-17 01:23:00,
2013-04-16 21:28:00,60.3,58.6,30.15,NNE,22,6.8,8.1,94,0.42,RA,,0.42,WeatherDisplay:10.37,2013-04-17 01:28:00,
2013-04-16 21:33:00,60.3,58.6,30.15,WSW,248,3.7,5.8,94,0.42,-RA,,0.42,WeatherDisplay:10.37,2013-04-17 01:33:00,
2013-04-16 21:38:00,60.3,58.6,30.19,NW,315,3.8,5.8,94,0.43,-RA,,0.43,WeatherDisplay:10.37,2013-04-17 01:38:00,
2013-04-16 21:43:00,60.3,58.6,30.19,NNW,338,0.7,5.8,94,0.44,-RA,,0.44,WeatherDisplay:10.37,2013-04-17 01:43:00,
2013-04-16 21:48:00,60.3,58.9,30.19,NE,45,3.9,8.1,95,0.45,-RA,,0.46,WeatherDisplay:10.37,2013-04-17 01:48:00,
2013-04-16 21:53:00,60.1,59.0,30.21,NE,45,4.5,6.1,96,0.46,-RA,,0.48,WeatherDisplay:10.37,2013-04-17 01:53:00,
2013-04-16 21:58:00,59.9,58.8,30.21,NNW,338,4.9,6.1,96,0.36,-RA,,0.50,WeatherDisplay:10.37,2013-04-17 01:58:00,
2013-04-16 22:03:00,59.7,58.8,30.22,ENE,68,0.8,4.6,97,0.17,-RA,,0.53,WeatherDisplay:10.37,2013-04-17 02:03:00,
2013-04-16 22:08:00,59.7,58.8,30.22,ENE,68,5.2,8.1,97,0.18,-RA,,0.55,WeatherDisplay:10.37,2013-04-17 02:08:00,
2013-04-16 22:13:00,59.5,58.6,30.22,NNE,22,5.3,6.9,97,0.19,-RA,,0.58,WeatherDisplay:10.37,2013-04-17 02:13:00,
2013-04-16 22:18:00,59.4,58.8,30.21,NE,45,5.9,9.2,98,0.20,-RA,,0.61,WeatherDisplay:10.37,2013-04-17 02:18:00,
2013-04-16 22:23:00,59.4,58.8,30.21,NE,45,3.7,7.0,98,0.23,-RA,,0.64,WeatherDisplay:10.37,2013-04-17 02:23:00,
2013-04-16 22:28:00,59.4,58.8,30.19,NE,45,0.3,3.5,98,0.25,-RA,,0.68,WeatherDisplay:10.37,2013-04-17 02:28:00,
2013-04-16 22:33:00,59.4,58.8,30.19,NE,45,0.0,0.0,98,0.28,-RA,,0.70,WeatherDisplay:10.37,2013-04-17 02:33:00,
2013-04-16 22:38:00,59.4,58.8,30.20,NE,45,0.0,0.0,98,0.28,-RA,,0.71,WeatherDisplay:10.37,2013-04-17 02:38:00,
2013-04-16 22:43:00,59.4,58.8,30.20,NE,45,2.1,3.6,98,0.29,-RA,,0.74,WeatherDisplay:10.37,2013-04-17 02:43:00,
2013-04-16 22:48:00,59.4,59.1,30.20,NE,45,2.1,4.6,99,0.30,-RA,,0.76,WeatherDisplay:10.37,2013-04-17 02:48:00,
2013-04-16 22:53:00,59.2,58.9,30.18,East,90,1.5,6.9,99,0.29,-RA,,0.76,WeatherDisplay:10.37,2013-04-17 02:53:00,
2013-04-16 22:58:00,59.2,58.9,30.18,East,90,2.7,3.5,99,0.27,-RA,,0.77,WeatherDisplay:10.37,2013-04-17 02:58:00,
2013-04-16 23:03:00,59.2,58.9,30.17,East,90,0.0,0.0,99,0.24,-RA,,0.77,WeatherDisplay:10.37,2013-04-17 03:03:00,
2013-04-16 23:08:00,59.0,58.7,30.17,East,90,0.0,0.0,99,0.22,-RA,,0.77,WeatherDisplay:10.37,2013-04-17 03:08:00,
2013-04-16 23:13:00,59.0,58.7,30.17,East,90,2.8,4.6,99,0.20,-RA,,0.78,WeatherDisplay:10.37,2013-04-17 03:13:00,
2013-04-16 23:18:00,59.0,58.7,30.17,East,90,0.0,2.3,99,0.19,-RA,,0.79,WeatherDisplay:10.37,2013-04-17 03:18:00,
2013-04-16 23:23:00,59.0,58.7,30.17,East,90,0.0,0.0,99,0.15,-RA,,0.79,WeatherDisplay:10.37,2013-04-17 03:23:00,
2013-04-16 23:28:00,59.0,58.7,30.17,East,90,0.0,0.0,99,0.12,-RA,,0.79,WeatherDisplay:10.37,2013-04-17 03:28:00,
2013-04-16 23:33:00,59.0,58.7,30.17,East,90,0.0,0.0,99,0.09,-RA,,0.80,WeatherDisplay:10.37,2013-04-17 03:33:00,
2013-04-16 23:38:00,58.8,58.5,30.17,East,90,0.0,0.0,99,0.09,-RA,,0.80,WeatherDisplay:10.37,2013-04-17 03:38:00,
2013-04-16 23:43:00,58.6,58.6,30.16,East,90,0.0,0.0,100,0.07,-RA,,0.80,WeatherDisplay:10.37,2013-04-17 03:43:00,
2013-04-16 23:48:00,58.6,58.6,30.16,East,90,0.0,0.0,100,0.04,-RA,,0.80,WeatherDisplay:10.37,2013-04-17 03:48:00,
2013-04-16 23:53:00,58.6,58.6,30.15,East,90,0.0,0.0,100,0.04,-RA,,0.80,WeatherDisplay:10.37,2013-04-17 03:53:00,
2013-04-16 23:58:00,58.5,58.5,30.15,East,90,0.0,0.0,100,0.03,-RA,,0.80,WeatherDisplay:10.37,2013-04-17 03:58:00,